Showing default

PTD-4, 60565

Orbit data source: Space-Track

PTD-4, 60565 is an American payload satellite in SSO that was launched on Fri, 16 Aug 2024 UTC via an FALCON 9 launch vehicle from the Air Force Western Test Range (AFWTR). Payload-class satellites include a variety of spacecraft equipped with specific instruments for various scientific and technological missions. These include communications satellites like Starlink; space stations such as the ISS; scientific satellites like the Hubble; Earth observation satellites from companies like Planet Labs, Umbra, and HawkEye 360; GPS; miniature CubeSats for education and research; and military/defense satellites.

Loading next visibility...
Identifier
60565, 2024-149DB
Orbit
SSO
Country
Flag of USUS
Related business
Manufacturer
Terran Orbital
Mission
Operational Civil Technology
Bus & Motor
CUBESAT 6U, Unknown motor
Mass
~10 kg wet, ~10 kg dry
Launch date (UTC)
2024-08-16 (2 years ago)
Launch vehicle
FALCON 9
Launch site
Air Force Western Test Range (AFWTR)
Object type
Payload
Rocket body
Debris
Shape & HBR
Box + 2 Pan, 1.0 m
Radar Cross Section
0.189 m², Medium (>0.1 m² and < 1m²)

Expand to show TLE details & history
Last TLE update: 1 day ago

TLE from 1 day ago
0 PTD-4
1 60565U 24149DB  26234.81280478  .00020842  00000-0  84865-3 0  9997
2 60565  97.6951 325.3711 0003782 152.3745 207.7693 15.24516609110960
Epoch: 2026-08-22T19:30Z
TLE epoch observation values (Epoch: 2026-08-22T19:30:26.332Z)
Latitude
-0.00009°
Longitude
61.64356°
Altitude
497.625 km
Speed
7.614 km/s
True Right ascension
21h 41m 29s
True Declination
0° 00' 00"
Sunlit
Object was in full shadow at epoch
Visualization orbit readout
Latitude
Unknown
Longitude
Unknown
Altitude
Unknown
Speed
Unknown
Apparent Right ascension
Unknown
Apparent Declination
Unknown
Sunlit
N/A
Visualization observer readout
Local Sidereal Time
20:03:26
Azimuth
Unknown
Elevation
Unknown
Doppler factor
Unknown
Orbital elements
Apogee altitude
491.807 km
Perigee altitude
486.613 km
Semi-major axis
6,867.347 km
Eccentricity
0.00038
Inclination
97.6951°
RAAN
325.3711°
Arg. of periapsis
152.3745°
True anomaly
207.74912°
Mean anomaly
207.7693°
Eccentric anomaly
207.75921°
Mean motion
3.81382 °/min
Orbital period
94.39 mins
BSTAR
0.00084865
Loading maneuver chart data...
Computing Atmospheric mass density...
Loading historical data...
Loading historical data...
Loading historical data...
Loading historical data...
Loading historical data...
Loading historical data...
Loading historical data...

Documentation

Showing up to 5 results
|